Printer-friendly version

IAU Minor Planet Center

Minor Planet Center

MPEC 2006-Q01 : 2006 BC10

The following Minor Planet Electronic Circular may be linked-to from your own Web pages, but must not otherwise be redistributed electronically.


Read MPEC 2006-P51 Read MPEC 2006-Q02


M.P.E.C. 2006-Q01                                Issued 2006 Aug. 16, 01:46 UT

     The Minor Planet Electronic Circulars contain information on unusual
         minor planets and routine data on comets.  They are published
   on behalf of Commission 20 of the International Astronomical Union by the
          Minor Planet Center, Smithsonian Astrophysical Observatory,
                          Cambridge, MA 02138, U.S.A.

                  Supported in part by the Brinson Foundation
                  Supported in part by the TABASGO Foundation
             Prepared using the Tamkin Foundation Computer Network

                              MPC@CFA.HARVARD.EDU
          URL http://cfa-www.harvard.edu/iau/mpc.html  ISSN 1523-6714

                                   2006 BC10

                           Revision to MPEC 2006-B57

Additional Observations:
     K06B10C 2C2006 08 11.61954705 04 11.609+18 28 49.60         19.4 R EQ001568
     K06B10C 2C2006 08 11.62015705 04 11.186+18 28 49.10         19.4 R EQ001568
     K06B10C 2C2006 08 11.62096905 04 10.602+18 28 48.45         19.4 R EQ001568
     K06B10C 2C2006 08 15.61276504 18 48.154+17 09 57.17         18.6 R EQ001568
     K06B10C 2C2006 08 15.61330604 18 47.796+17 09 56.43         18.6 R EQ001568
     K06B10C 2C2006 08 15.61422804 18 47.168+17 09 55.19         18.6 R EQ001568
     K06B10C 2C2006 08 15.61477104 18 46.791+17 09 54.40         18.6 R EQ001568

Observer details:
568 Mauna Kea.  Observer F. Bernardi.  2.24-m University of Hawaii reflector
    + 2048 CCD.

First and last observations above in comparison with prediction:
Residuals in seconds of arc (or two decimals in degrees), reference and Delta-T
060811 568 0.09- 0.01-    060815 568 0.10- 0.02-    MPO102271   -0.023 day

Orbital elements:
2006 BC10                                           PHA, Earth MOID = 0.0068 AU
Epoch 2006 Sept. 22.0 TT = JDT 2454000.5                MPC
M  28.33995              (2000.0)            P               Q
n   0.34494696     Peri.  233.37339     -0.25548615     +0.96679355
a   2.0135751      Node    21.82658     -0.88172482     -0.23041379
e   0.6604415      Incl.    0.93811     -0.39659573     -0.11054281
P   2.86           H   19.6           G   0.15           U   3
Residuals in seconds of arc
060123 691  0.3-  0.6+    060126 291  0.6-  0.4-    060204 291  1.3+  0.0
060123 691  0.2-  0.1-    060129 715  1.1-  0.6-    060225 291  0.8+  0.7-
060123 691  0.3-  0.3-    060129 715  0.7-  0.9-    060225 291  1.6+  0.5-
060124 291  0.1+  0.4+    060129 715  0.4-  0.3-    060225 291  1.4+  0.4-
060124 291  0.7-  1.1+    060130 291  0.2+  0.3-    060418 291  0.4+  0.2-
060124 291  0.2-  0.7-    060130 291  0.2-  0.1+    060418 291  1.9+  0.6-
060124 J95  0.7+  0.2-    060201 291  0.2-  0.7-    060418 291  0.6+  0.3+
060124 J95  1.3-  0.1+    060201 291  0.5-  0.5-    060811 568  0.1-  0.0
060125 291  0.9+  0.9+    060201 291  0.6+  0.0     060811 568  0.1+  0.0
060125 291  0.8-  0.4+    060201 F65  0.0   0.1+    060811 568  0.0   0.0
060125 291  0.7-  0.1-    060201 F65  0.1-  0.1+    060815 568  0.0   0.0
060125 734 (3.5-  0.8+)   060201 F65  0.4-  0.2+    060815 568  0.1+  0.0
060125 734  1.5+  0.2+    060203 291  0.4-  1.2+    060815 568  0.0   0.0
060125 734  1.6+  0.6-    060203 291  0.7-  0.5+    060815 568  0.1-  0.0
060126 291  0.0   0.4-    060203 291  1.0-  0.3-
060126 291  0.2-  0.3+    060204 291  0.0   0.8+

Ephemeris:
2006 BC10                a,e,i = 2.01, 0.66, 1                   q = 0.6837
Date    TT    R. A. (2000) Decl.     Delta      r     Elong.  Phase     V
2006 08 13    04 48.15   +18 05.7    0.167    0.961    67.2   103.6    19.4
2006 08 23    03 05.42   +13 40.0    0.187    1.065   101.9    68.3    18.5
2006 09 02    01 51.03   +08 34.4    0.231    1.172   130.4    41.0    18.4
2006 09 12    00 59.91   +04 24.4    0.296    1.278   153.5    20.6    18.5
2006 09 22    00 25.61   +01 26.5    0.380    1.382   172.2     5.6    18.7
2006 10 02    00 03.71   -00 27.0    0.485    1.483   172.1     5.4    19.3
2006 10 12    23 51.00   -01 29.8    0.609    1.581   158.9    13.1    20.3
2006 10 22    23 44.97   -01 55.3    0.749    1.676   147.4    18.6    21.0
2006 11 01    23 43.87   -01 52.8    0.905    1.767   137.2    22.4    21.7

                       (Last issue was M.P.E.C. 2006-P51)

Gareth V. Williams           (C) Copyright 2006 MPC           M.P.E.C. 2006-Q01

Read MPEC 2006-P51 Read MPEC 2006-Q02


Our Web policy. Index to the CBAT/MPC/ICQ pages.


Valid HTML 4.01!